SCP
0 0 0 0 0 0 0 0 0 0 0 0 0 0 0 0 0 0 0 0 0 0 0 0 0 0 0 0 0 0 0 0 0 0 0 0 0 0 0 0 0 0 0 0 0 0 0 0 0 1 0 1 1 1
0 0 0 0 0 0 0 0 0 0 0 0 0 0 0 0 0 0 0 0 0 0 0 -0 0 0 0 0 0 0 0 0 0 0 0 0 0 0 0 0 0 0 0 0 0 0 0 0 0 0 1 1 1 1
0 0 0 0 0 0 0 0 0 0 0 0 0 0 0 0 0 0 0 0 0 0 0 0 0 0 0 0 0 0 0 0 0 0 0 0 0 0 0 1 1 1 0 0 0 -0 0 0 0 0 1 1 1 0
0 0 0 0 0 0 0 0 0 0 0 0 0 0 0 0 0 0 0 0 0 0 0 0 0 -0 0 0 0 0 0 0 0 0 0 0 0 0 0 0 0 0 0 0 0 0 0 0 0 1 0 0 0 0
0 0 0 0 0 0 0 0 0 0 0 0 0 0 0 0 0 0 0 0 0 0 0 0 0 0 0 0 0 0 0 0 0 0 0 0 0 0 0 0 0 0 0 0 1 1 0 0 0 1 0 0 0 0
0 0 0 0 0 0 0 0 0 0 0 0 0 0 0 0 0 0 0 0 0 0 0 0 0 0 -0 0 0 0 0 0 0 0 0 0 0 0 0 0 0 0 0 -0 0 0 0 0 0 1 1 1 1 1
0 0 0 0 0 0 0 0 0 0 0 0 0 0 0 0 0 0 0 0 0 0 0 0 0 0 0 0 0 0 0 0 0 0 0 0 0 0 0 0 0 0 1 -0 -0 0 0 0 0 -0 1 1 1 1
0 0 0 0 0 0 0 0 0 0 0 0 0 0 0 0 0 0 0 0 0 0 0 0 0 0 0 0 -0 0 0 0 0 0 0 0 0 0 -0 -0 -0 -0 -0 0 0 0 0 0 0 0 0 0 0 0
0 0 0 0 0 0 0 0 0 0 0 0 0 0 0 0 0 0 0 0 0 0 0 0 0 0 0 0 0 0 0 0 0 0 0 0 0 0 -0 -0 0 -0 -0 -0 0 0 0 0 0 0 0 0 0 0
0 0 0 0 0 0 0 0 0 -0 0 0 0 0 0 0 0 0 0 0 0 0 0 0 0 0 0 0 -0 0 0 0 0 0 0 0 0 0 0 0 0 -0 -0 -0 -0 0 0 0 0 0 0 0 0 0
0 0 0 0 0 0 0 0 -0 -0 0 0 0 0 0 0 0 0 0 0 0 0 0 0 0 0 0 -0 0 -0 0 -0 0 0 0 0 0 0 0 0 0 0 -0 -0 -0 0 -0 -0 0 0 0 0 0 0
0 0 0 0 0 0 0 0 -0 0 0 0 0 0 0 0 0 0 0 0 0 0 0 0 0 0 0 -0 -0 -0 -0 0 0 0 0 0 0 0 -0 -0 0 0 -0 -0 -0 -0 0 -0 0 0 0 0 0 0
0 0 0 0 0 0 0 0 -0 -0 -0 0 0 0 0 0 0 0 0 0 0 0 0 0 0 0 0 0 0 -0 0 -0 0 0 0 0 0 0 -0 0 0 0 -0 -0 0 1 3 1 1 0 0 0 0 0
0 0 0 0 0 0 -0 -0 -0 -0 0 0 0 0 0 0 0 0 0 0 0 0 0 0 0 0 0 0 0 0 0 -0 0 0 0 0 1 1 1 1 1 1 1 1 1 2 2 1 1 1 0 -0 0 0
0 0 0 0 0 0 -0 -0 -0 -0 0 0 0 0 0 0 0 0 0 0 0 0 0 0 0 0 0 0 0 0 -0 -0 0 0 0 0 0 1 1 1 1 1 1 1 0 0 1 1 0 0 0 0 0 0
0 0 0 0 0 -0 -0 -0 0 0 0 0 0 0 0 0 0 0 0 -0 0 -0 0 0 0 0 0 0 0 0 -0 0 0 0 0 0 0 0 0 0 0 0 1 0 0 0 0 0 0 1 0 1 0 0
0 0 0 0 0 0 0 -0 0 0 0 0 0 0 0 -0 -0 -0 0 0 0 0 -0 0 0 0 0 -0 0 0 0 0 0 0 -0 0 0 0 0 0 0 0 0 0 0 0 0 0 0 0 1 1 1 0
0 0 0 -0 -0 -0 -0 0 0 0 0 0 0 -0 -0 0 -0 -0 -0 0 -0 -0 -0 -0 -0 -0 -0 -0 -0 0 0 0 0 0 0 0 0 0 0 0 0 0 0 0 0 0 0 0 1 0 0 1 1 0
0 0 0 0 0 0 0 0 0 0 0 -0 -0 -0 -0 -0 -0 -0 -0 -0 -0 0 -0 -0 -0 0 -0 -0 0 0 0 0 -0 -0 0 0 -0 0 0 0 0 0 0 0 0 0 0 0 0 0 0 0 0 0
0 0 0 0 0 0 0 0 -0 0 0 0 0 0 0 -0 -0 0 -0 -0 0 -0 0 0 0 -0 -0 -0 -0 0 -0 -0 -0 -0 -0 -0 0 -0 -0 -0 0 0 0 0 0 0 0 0 0 0 0 0 0 0
0 0 0 0 0 0 0 0 0 0 0 0 0 0 0 0 0 -0 -0 0 -0 -0 -0 0 -0 -0 -0 0 0 0 -0 -0 0 -0 -0 0 -0 0 0 -0 -0 0 0 0 0 0 0 0 0 0 0 0 0 0
0 0 0 0 0 0 0 0 0 0 0 0 0 0 0 0 0 0 0 0 0 0 0 0 0 -0 -0 -0 0 0 0 0 0 0 0 0 0 0 0 -0 0 0 0 0 -0 -0 -0 -0 0 0 0 0 0 0
0 0 0 0 0 0 0 0 0 0 -0 0 0 0 0 0 0 0 0 0 0 0 0 0 0 0 0 0 0 0 -0 0 0 0 -0 -0 -0 -0 -0 -0 -0 0 0 0 0 0 0 0 0 0 0 0 0 0
0 0 0 0 0 0 0 0 0 0 0 0 0 0 0 0 0 0 0 0 0 0 0 -0 0 0 0 0 0 0 0 0 0 0 0 0 0 0 -0 -0 -0 -0 -0 -0 0 0 0 0 0 0 0 0 0 0
0 0 0 0 0 0 0 0 0 0 0 0 0 0 0 0 0 0 0 0 0 0 0 0 -0 0 0 0 0 0 0 -0 -0 0 0 -0 0 -0 -0 -0 -0 -0 -0 0 0 0 0 0 0 0 0 0 0 0
0 -0 -0 -0 0 0 0 0 0 0 0 0 0 0 0 0 0 0 0 0 0 0 0 0 0 0 0 0 0 0 0 0 -0 -0 -0 0 -0 -0 -0 -0 -0 0 0 0 0 0 0 0 0 0 0 0 0 0
0 -0 -0 -0 -0 0 0 0 0 0 0 0 0 0 0 0 0 0 0 0 0 0 0 0 0 0 0 0 0 0 0 0 0 0 0 0 0 -0 -0 -0 -0 0 0 0 0 0 0 0 0 0 0 0 0 0
-0 -0 -0 -0 -0 -0 0 0 0 0 0 0 0 0 0 0 0 0 0 0 0 0 0 0 0 0 0 0 0 0 0 0 0 0 0 0 0 0 0 0 0 -0 0 0 0 0 0 0 0 0 0 0 0 0
-0 0 0 -0 -0 -0 -0 -0 -0 0 0 0 0 0 0 0 0 0 0 0 0 0 0 0 0 0 0 0 0 0 0 0 0 0 0 0 0 0 0 0 0 0 0 0 0 0 0 0 0 -0 0 0 0 0
-0 -0 -0 -0 0 0 0 -0 -0 0 0 0 0 0 0 0 0 0 0 0 0 0 0 0 0 0 0 0 0 0 0 -0 0 0 0 -0 -0 -0 -0 0 0 0 0 0 0 0 0 0 0 0 0 -0 -0 0
-0 -0 0 0 0 0 -0 -0 -0 0 0 0 0 0 0 0 0 0 0 0 0 0 0 0 0 0 0 0 0 0 0 0 0 0 0 0 0 0 0 -0 0 0 -0 0 0 0 0 0 0 0 0 0 0 0
0 -0 0 0 0 0 0 0 0 0 0 0 0 0 0 0 0 0 0 0 0 0 0 0 0 0 0 0 0 0 0 0 0 0 0 -0 -0 0 0 0 0 0 0 0 0 0 0 0 0 0 0 0 0 0
0 0 0 0 0 0 0 0 0 0 0 0 -0 0 0 0 0 0 0 0 0 0 0 0 0 0 0 0 0 0 0 0 0 0 0 -0 -0 0 0 0 0 0 0 0 0 0 0 0 0 0 0 0 0 0
Wind_Speed_500mb
17 17 18 23 27 33 38 41 46 45 38 34 31 29 28 25 26 29 25 7 21 20 58 44 30 31 34 30 12 39 24 25 13 8 7 12 11 16 22 23 20 14 10 5 4 6 14 13 55 8 11 25 40 41
18 18 22 27 31 35 39 40 45 45 38 33 32 29 26 24 24 28 33 11 22 27 38 54 60 47 43 42 42 28 34 36 12 8 11 9 10 10 13 20 18 18 13 11 22 16 24 13 33 42 28 29 21 29
17 20 25 30 33 37 39 39 46 48 42 32 29 27 27 26 26 29 37 31 27 30 39 38 35 25 26 38 41 46 37 34 39 31 18 8 11 9 8 8 13 28 33 8 13 8 17 61 66 28 40 26 9 15
19 22 26 30 33 37 40 40 44 48 34 29 28 27 26 27 28 30 33 16 27 18 10 32 21 35 35 40 37 43 63 51 50 48 30 11 9 20 4 14 22 12 19 21 12 30 50 21 52 57 56 35 21 14
21 24 28 29 33 37 40 41 42 46 32 29 26 27 26 27 27 26 26 20 27 24 9 37 66 34 25 30 47 42 42 49 51 33 14 12 24 20 11 8 11 12 8 8 7 36 33 51 32 49 57 61 53 32
21 25 27 29 34 38 41 40 41 45 32 26 27 27 23 24 23 20 6 5 9 24 10 7 28 54 33 39 30 42 52 48 39 31 16 25 49 33 8 8 9 18 19 14 15 61 43 41 42 49 47 42 28 28
22 24 26 31 35 40 42 41 41 45 27 27 30 25 20 22 23 13 8 5 10 14 7 12 13 11 27 22 20 35 40 35 39 40 30 32 35 32 7 23 38 27 21 35 43 71 74 47 78 80 47 31 30 33
22 24 28 33 39 42 44 43 43 40 26 26 24 20 22 25 24 14 12 23 24 14 9 6 8 16 16 14 18 17 33 47 45 32 35 20 19 19 9 11 4 8 10 34 35 42 52 41 54 77 30 32 38 44
22 26 31 37 42 47 48 45 42 30 21 19 16 20 21 8 4 8 13 18 15 14 7 10 5 7 18 13 14 12 9 5 13 10 14 9 11 13 13 35 10 6 14 20 39 16 54 53 32 71 15 17 26 34
24 29 34 41 48 53 54 48 31 17 13 9 12 6 6 6 16 19 6 2 7 10 13 9 8 8 10 12 8 9 8 6 5 14 21 19 26 37 42 42 20 26 31 25 51 39 5 39 40 73 47 26 26 19
27 32 38 44 51 55 45 27 7 6 2 4 4 5 13 20 9 4 5 5 8 7 11 14 26 14 13 9 4 8 6 6 7 8 14 9 14 35 62 45 35 36 33 38 35 38 40 45 55 48 37 24 17 15
29 35 40 46 51 41 28 6 4 7 1 7 17 16 12 4 6 7 4 4 4 6 12 9 18 23 13 17 11 5 6 6 10 12 11 5 8 55 62 61 46 53 39 36 31 34 25 38 30 39 28 23 18 18
32 36 40 45 40 24 11 2 3 8 9 7 7 6 4 3 3 7 6 3 7 10 16 15 10 9 13 18 13 4 6 10 19 7 13 7 32 49 64 48 34 54 33 32 20 18 10 3 17 19 32 36 31 22
31 37 41 38 29 11 3 1 3 2 3 6 5 8 6 4 6 7 6 9 17 25 36 32 19 10 11 13 3 8 10 2 7 6 7 12 39 32 34 27 23 26 16 7 6 8 9 9 17 18 24 30 25 24
32 37 36 35 15 5 3 4 4 4 5 6 5 5 6 11 27 28 20 24 41 37 30 19 13 12 7 7 3 6 6 6 9 10 8 35 29 24 39 34 28 24 21 21 15 15 11 6 10 21 19 17 22 25
36 37 28 26 2 3 5 7 6 1 6 5 8 10 20 20 26 26 30 28 32 34 11 5 3 7 7 6 7 7 9 8 7 5 30 40 46 42 32 20 21 23 20 19 15 14 18 14 17 19 24 16 12 16
37 30 34 14 5 6 6 3 5 8 7 6 9 20 22 32 29 35 43 46 49 33 9 9 6 4 7 8 10 10 7 8 28 30 11 33 30 32 28 26 23 18 16 18 22 23 24 10 16 21 24 16 11 17
37 38 23 7 9 8 2 3 5 6 7 10 15 33 31 35 39 36 42 43 35 25 21 7 20 6 5 8 10 12 20 37 42 27 18 27 20 29 33 29 26 24 23 26 25 34 23 21 23 26 24 32 19 17
35 12 1 19 14 6 1 3 4 7 7 15 20 27 35 36 31 32 30 35 35 26 17 18 6 8 8 15 34 45 48 50 53 49 30 21 31 27 26 24 29 31 39 37 29 31 29 28 29 30 28 24 20 25
9 5 18 20 10 4 4 4 6 8 7 14 17 28 20 22 26 36 45 46 37 14 13 10 8 20 28 38 37 42 50 50 41 39 40 42 39 41 38 28 27 34 37 36 35 34 35 28 27 30 29 29 30 28
10 18 19 14 6 5 3 6 6 6 11 10 22 24 9 17 29 40 46 36 27 11 9 19 45 61 55 41 30 24 34 30 30 25 28 29 34 30 31 34 32 28 34 38 40 41 39 39 41 41 38 31 35 41
12 16 10 4 1 2 3 3 5 11 7 14 17 15 7 11 11 20 22 21 13 16 34 46 57 60 56 41 30 31 30 32 35 39 46 43 47 44 44 46 49 51 45 42 42 46 46 47 47 45 45 43 37 37
12 8 4 4 2 3 2 1 4 5 3 3 5 7 3 4 5 8 8 10 17 38 57 61 60 52 50 47 44 44 43 43 42 38 39 42 44 44 48 47 50 53 54 54 53 55 49 42 38 35 36 37 34 32
7 4 2 3 5 2 2 4 6 6 5 6 3 4 4 2 4 4 3 4 14 30 38 39 44 48 49 48 46 43 43 40 35 27 32 35 31 34 41 39 40 44 48 48 50 51 52 54 53 43 31 30 31 32
4 5 6 6 7 7 8 7 8 8 6 8 6 6 7 9 3 3 5 10 19 29 26 28 31 30 30 36 31 30 31 37 41 37 43 40 39 33 36 39 41 43 49 50 46 51 55 52 53 49 45 43 41 36
6 14 19 16 14 11 12 9 10 10 9 9 6 10 14 7 5 6 5 14 25 30 34 34 29 32 28 28 32 32 28 19 28 37 37 36 39 42 45 45 46 49 52 55 47 49 53 49 53 49 49 47 45 42
7 12 15 18 10 10 8 13 9 8 6 6 5 7 4 5 4 1 8 10 19 31 39 40 38 33 31 32 28 35 37 35 33 33 35 32 36 43 47 45 46 52 51 50 44 47 48 52 52 50 53 56 60 58
15 9 12 15 12 11 6 7 6 2 4 2 2 5 6 7 4 1 6 9 15 23 33 44 36 30 19 29 35 34 35 31 39 39 36 31 39 46 51 46 34 50 51 47 41 42 53 57 49 34 36 41 44 43
13 14 12 12 18 7 6 4 7 10 9 11 8 8 7 12 9 4 15 18 10 17 27 36 44 38 35 34 37 41 42 39 45 38 39 44 50 55 55 50 43 51 53 51 40 56 50 47 35 42 45 44 41 43
14 20 8 4 4 2 1 18 29 26 27 26 30 31 20 9 7 4 6 20 29 27 29 30 40 41 41 41 42 39 36 35 39 30 32 39 43 48 49 42 50 50 53 45 50 55 49 47 46 46 51 52 56 51
12 18 7 5 9 32 39 38 37 31 30 29 26 25 13 5 8 7 14 22 26 30 28 31 34 37 38 39 41 38 39 38 37 30 37 31 38 50 40 38 43 43 50 44 51 41 47 45 49 45 45 43 44 45
15 28 16 7 11 21 26 8 10 11 6 8 9 7 4 4 5 7 29 25 29 30 26 29 34 36 33 32 32 31 32 30 34 38 38 46 53 38 40 37 34 36 42 42 40 39 41 37 44 41 36 35 40 39
35 36 25 12 12 3 4 5 7 4 3 5 4 5 2 5 6 11 22 29 27 23 27 29 28 31 29 30 31 32 33 28 32 34 37 45 43 31 39 41 33 31 38 35 38 39 39 37 39 40 36 38 40 43
Wind_Direction_500mb
305 321 330 337 341 344 344 344 346 344 337 333 324 322 320 321 322 323 317 270 291 286 284 290 302 315 321 318 302 325 333 13 326 332 303 282 278 271 287 274 254 177 129 305 260 105 255 350 342 66 190 86 96 94
295 306 320 325 328 332 334 337 340 339 332 326 325 323 319 315 313 310 307 314 283 277 267 281 288 278 265 261 281 286 296 312 314 359 356 342 316 298 293 284 251 253 229 199 202 209 196 65 252 271 108 96 94 118
296 304 312 319 324 327 328 327 336 336 328 317 318 320 318 311 306 295 295 293 281 295 299 272 283 311 279 276 257 250 267 273 283 300 321 300 270 5 357 353 319 349 27 334 6 293 174 165 226 178 135 108 129 125
298 305 311 321 325 325 325 324 332 337 331 321 316 320 320 316 309 298 290 277 274 279 273 292 302 286 265 265 250 269 250 261 269 277 278 282 294 293 265 273 314 283 319 333 280 25 346 191 194 148 158 156 95 214
297 306 316 323 327 327 325 327 328 334 322 318 318 319 317 316 310 305 292 284 265 251 288 293 301 304 303 264 259 261 264 257 250 248 243 252 277 289 308 249 260 35 12 357 292 338 311 273 210 142 149 165 175 168
296 309 317 325 329 328 327 328 329 328 316 315 316 314 313 315 306 324 325 347 298 258 293 300 294 302 282 273 261 267 248 257 270 273 250 251 265 283 263 284 359 1 9 28 352 334 326 2 359 150 135 134 135 127
299 309 319 327 330 329 328 324 324 325 312 310 310 306 304 308 311 264 258 237 320 334 280 296 281 295 320 275 272 265 264 254 243 258 260 250 267 291 278 282 299 317 350 37 26 14 8 16 335 310 131 141 120 120
300 311 320 326 326 326 326 322 320 322 313 309 312 305 297 303 304 308 277 258 275 284 246 262 270 290 345 324 307 276 243 242 243 242 246 268 276 230 250 265 72 20 38 36 52 32 25 17 325 352 81 89 87 86
303 312 320 324 323 325 321 320 316 313 309 317 314 309 305 320 294 281 292 288 264 233 254 234 255 295 330 321 292 280 242 239 230 237 228 245 247 226 206 233 187 93 80 63 77 47 33 31 344 333 325 71 81 85
306 314 322 322 324 323 320 317 307 300 308 323 322 321 279 287 312 299 313 221 225 228 227 261 223 254 285 277 286 285 271 213 232 213 223 217 241 255 256 265 184 147 151 111 102 94 5 301 299 318 340 25 53 54
307 318 321 324 324 323 324 321 283 291 351 6 284 255 301 313 315 291 270 224 202 244 223 248 236 232 233 223 250 272 310 268 221 210 189 216 212 222 241 252 214 166 149 158 155 178 225 279 277 289 295 319 338 347
314 318 322 324 326 329 330 312 219 186 312 294 305 298 297 278 239 264 225 258 305 310 292 237 261 228 225 205 225 253 261 273 249 359 184 242 218 196 211 231 230 196 177 178 187 199 196 260 352 307 314 319 307 290
316 320 324 326 331 336 351 6 223 231 278 305 284 267 227 184 7 271 346 44 273 247 240 269 303 271 196 189 213 223 239 250 337 247 182 244 217 198 209 214 201 199 219 225 211 210 359 352 264 285 281 274 273 278
319 322 325 324 332 326 344 72 201 267 255 258 257 320 231 213 248 236 235 249 246 236 267 276 282 256 209 180 192 159 242 231 259 263 91 40 61 99 166 154 130 94 109 113 11 62 168 257 270 289 286 284 257 264
322 323 327 327 314 277 216 182 197 223 291 274 294 258 251 298 303 304 280 274 288 275 255 279 276 244 262 255 207 306 182 97 329 18 357 359 33 60 71 82 79 61 44 43 39 26 5 334 305 285 285 275 262 263
321 325 334 341 219 192 180 185 178 202 267 262 249 265 285 327 296 313 313 315 343 336 286 215 295 299 277 318 92 335 11 360 316 16 14 27 29 38 49 58 53 28 11 5 357 337 321 311 334 310 308 278 292 281
322 330 329 331 191 183 182 195 236 229 240 249 259 324 338 337 348 345 9 356 0 2 347 315 275 290 312 4 18 38 2 293 309 322 14 20 4 12 24 26 22 359 347 332 324 319 306 316 318 321 318 336 292 286
324 324 321 200 175 150 144 216 280 274 257 279 327 342 344 335 334 341 345 349 348 335 330 334 316 329 20 351 16 3 338 329 334 308 300 338 307 360 7 350 343 346 335 327 317 306 309 334 332 319 331 332 291 303
327 330 281 160 153 120 314 237 278 291 287 331 333 340 340 347 353 351 342 346 342 321 309 335 327 35 6 355 344 332 332 336 332 336 344 18 27 17 21 14 2 349 334 324 318 312 312 314 312 304 309 323 341 326
4 37 143 147 139 55 339 315 302 286 317 329 338 339 337 12 28 25 21 19 10 27 17 23 11 322 313 309 309 307 312 319 326 338 344 347 351 350 355 354 348 336 334 355 359 357 1 354 357 359 358 358 346 340
75 128 139 143 63 15 1 349 323 320 318 319 343 348 345 9 15 21 24 36 41 33 351 316 316 315 311 300 297 291 305 319 335 357 357 347 347 357 352 345 347 0 4 1 351 339 344 346 341 337 339 333 339 344
125 147 139 172 71 338 269 307 287 298 294 308 332 349 351 18 31 23 18 11 2 347 346 341 350 19 44 49 56 61 62 68 65 58 50 47 45 41 38 34 36 35 32 17 360 350 336 328 324 314 314 313 322 334
147 143 172 206 226 253 238 358 263 263 290 331 288 303 303 352 40 19 66 17 9 10 12 16 28 41 46 51 54 54 50 51 55 60 59 54 49 41 40 35 34 33 30 29 26 22 11 354 336 324 319 310 314 317
163 173 186 237 208 274 238 225 231 257 233 226 250 273 217 201 158 94 89 256 357 4 5 20 31 29 35 41 36 30 25 27 23 19 4 354 1 13 18 13 18 17 13 11 10 14 15 16 15 16 6 357 349 343
219 206 185 228 216 225 231 197 205 221 241 195 215 213 201 177 173 75 56 43 335 343 351 351 343 346 344 3 12 23 24 25 25 20 24 26 14 25 17 11 8 2 359 356 356 3 3 356 358 5 10 8 11 7
236 202 192 202 189 211 196 197 206 227 229 208 238 154 174 196 93 63 31 329 346 344 345 347 340 342 350 352 345 353 4 358 11 17 16 16 15 14 10 6 359 352 358 357 352 349 347 348 353 343 338 344 348 348
251 209 210 225 247 241 243 216 225 252 226 224 176 164 190 86 82 132 314 349 336 339 337 335 328 320 319 335 15 14 13 18 16 23 20 17 18 16 12 1 354 352 353 353 348 351 348 341 336 337 336 332 333 333
241 265 212 191 215 245 256 199 210 236 274 261 135 49 44 45 78 104 351 14 11 335 334 345 356 335 3 14 12 16 13 8 359 1 2 2 2 358 358 349 352 359 351 347 351 352 349 347 340 6 13 15 11 359
234 226 189 211 224 229 247 51 29 58 86 78 72 73 89 91 102 74 348 348 0 347 355 3 358 9 12 10 9 12 9 8 1 4 6 359 354 353 351 348 360 353 352 347 355 0 359 5 359 16 11 6 355 20
220 183 206 218 171 335 212 118 96 75 73 87 105 108 103 88 75 75 38 345 339 11 18 3 358 5 7 3 358 0 2 2 4 11 8 358 351 342 338 351 357 350 350 349 359 357 359 1 8 5 7 12 6 5
272 167 199 320 95 69 80 87 95 94 95 94 92 95 94 75 84 27 351 2 3 8 14 7 360 360 1 357 358 360 356 356 355 352 350 351 345 346 350 360 351 351 349 359 354 351 1 0 5 11 13 12 12 12
217 197 203 105 81 111 110 145 62 77 68 75 54 45 78 164 103 45 24 25 15 10 12 7 358 356 352 350 349 348 346 348 343 339 353 359 353 355 357 356 350 355 354 356 356 359 354 356 2 2 1 15 14 17
92 73 82 101 125 211 314 100 57 64 3 53 16 292 256 122 97 54 15 16 6 358 4 1 352 349 350 350 351 348 346 347 344 340 354 352 350 353 353 352 355 360 358 357 359 0 0 1 357 357 354 351 353 354
Wind_Speed_850mb
17 17 18 23 27 33 38 41 46 45 38 34 31 29 28 25 26 29 25 7 21 20 58 44 30 31 34 30 12 39 24 25 13 8 7 12 11 16 22 23 20 14 10 5 4 6 14 13 55 8 11 25 40 41
18 18 22 27 31 35 39 40 45 45 38 33 32 29 26 24 24 28 33 11 22 27 38 54 60 47 43 42 42 28 34 36 12 8 11 9 10 10 13 20 18 18 13 11 22 16 24 13 33 42 28 29 21 29
17 20 25 30 33 37 39 39 46 48 42 32 29 27 27 26 26 29 37 31 27 30 39 38 35 25 26 38 41 46 37 34 39 31 18 8 11 9 8 8 13 28 33 8 13 8 17 61 66 28 40 26 9 15
19 22 26 30 33 37 40 40 44 48 34 29 28 27 26 27 28 30 33 16 27 18 10 32 21 35 35 40 37 43 63 51 50 48 30 11 9 20 4 14 22 12 19 21 12 30 50 21 52 57 56 35 21 14
21 24 28 29 33 37 40 41 42 46 32 29 26 27 26 27 27 26 26 20 27 24 9 37 66 34 25 30 47 42 42 49 51 33 14 12 24 20 11 8 11 12 8 8 7 36 33 51 32 49 57 61 53 32
21 25 27 29 34 38 41 40 41 45 32 26 27 27 23 24 23 20 6 5 9 24 10 7 28 54 33 39 30 42 52 48 39 31 16 25 49 33 8 8 9 18 19 14 15 61 43 41 42 49 47 42 28 28
22 24 26 31 35 40 42 41 41 45 27 27 30 25 20 22 23 13 8 5 10 14 7 12 13 11 27 22 20 35 40 35 39 40 30 32 35 32 7 23 38 27 21 35 43 71 74 47 78 80 47 31 30 33
22 24 28 33 39 42 44 43 43 40 26 26 24 20 22 25 24 14 12 23 24 14 9 6 8 16 16 14 18 17 33 47 45 32 35 20 19 19 9 11 4 8 10 34 35 42 52 41 54 77 30 32 38 44
22 26 31 37 42 47 48 45 42 30 21 19 16 20 21 8 4 8 13 18 15 14 7 10 5 7 18 13 14 12 9 5 13 10 14 9 11 13 13 35 10 6 14 20 39 16 54 53 32 71 15 17 26 34
24 29 34 41 48 53 54 48 31 17 13 9 12 6 6 6 16 19 6 2 7 10 13 9 8 8 10 12 8 9 8 6 5 14 21 19 26 37 42 42 20 26 31 25 51 39 5 39 40 73 47 26 26 19
27 32 38 44 51 55 45 27 7 6 2 4 4 5 13 20 9 4 5 5 8 7 11 14 26 14 13 9 4 8 6 6 7 8 14 9 14 35 62 45 35 36 33 38 35 38 40 45 55 48 37 24 17 15
29 35 40 46 51 41 28 6 4 7 1 7 17 16 12 4 6 7 4 4 4 6 12 9 18 23 13 17 11 5 6 6 10 12 11 5 8 55 62 61 46 53 39 36 31 34 25 38 30 39 28 23 18 18
32 36 40 45 40 24 11 2 3 8 9 7 7 6 4 3 3 7 6 3 7 10 16 15 10 9 13 18 13 4 6 10 19 7 13 7 32 49 64 48 34 54 33 32 20 18 10 3 17 19 32 36 31 22
31 37 41 38 29 11 3 1 3 2 3 6 5 8 6 4 6 7 6 9 17 25 36 32 19 10 11 13 3 8 10 2 7 6 7 12 39 32 34 27 23 26 16 7 6 8 9 9 17 18 24 30 25 24
32 37 36 35 15 5 3 4 4 4 5 6 5 5 6 11 27 28 20 24 41 37 30 19 13 12 7 7 3 6 6 6 9 10 8 35 29 24 39 34 28 24 21 21 15 15 11 6 10 21 19 17 22 25
36 37 28 26 2 3 5 7 6 1 6 5 8 10 20 20 26 26 30 28 32 34 11 5 3 7 7 6 7 7 9 8 7 5 30 40 46 42 32 20 21 23 20 19 15 14 18 14 17 19 24 16 12 16
37 30 34 14 5 6 6 3 5 8 7 6 9 20 22 32 29 35 43 46 49 33 9 9 6 4 7 8 10 10 7 8 28 30 11 33 30 32 28 26 23 18 16 18 22 23 24 10 16 21 24 16 11 17
37 38 23 7 9 8 2 3 5 6 7 10 15 33 31 35 39 36 42 43 35 25 21 7 20 6 5 8 10 12 20 37 42 27 18 27 20 29 33 29 26 24 23 26 25 34 23 21 23 26 24 32 19 17
35 12 1 19 14 6 1 3 4 7 7 15 20 27 35 36 31 32 30 35 35 26 17 18 6 8 8 15 34 45 48 50 53 49 30 21 31 27 26 24 29 31 39 37 29 31 29 28 29 30 28 24 20 25
9 5 18 20 10 4 4 4 6 8 7 14 17 28 20 22 26 36 45 46 37 14 13 10 8 20 28 38 37 42 50 50 41 39 40 42 39 41 38 28 27 34 37 36 35 34 35 28 27 30 29 29 30 28
10 18 19 14 6 5 3 6 6 6 11 10 22 24 9 17 29 40 46 36 27 11 9 19 45 61 55 41 30 24 34 30 30 25 28 29 34 30 31 34 32 28 34 38 40 41 39 39 41 41 38 31 35 41
12 16 10 4 1 2 3 3 5 11 7 14 17 15 7 11 11 20 22 21 13 16 34 46 57 60 56 41 30 31 30 32 35 39 46 43 47 44 44 46 49 51 45 42 42 46 46 47 47 45 45 43 37 37
12 8 4 4 2 3 2 1 4 5 3 3 5 7 3 4 5 8 8 10 17 38 57 61 60 52 50 47 44 44 43 43 42 38 39 42 44 44 48 47 50 53 54 54 53 55 49 42 38 35 36 37 34 32
7 4 2 3 5 2 2 4 6 6 5 6 3 4 4 2 4 4 3 4 14 30 38 39 44 48 49 48 46 43 43 40 35 27 32 35 31 34 41 39 40 44 48 48 50 51 52 54 53 43 31 30 31 32
4 5 6 6 7 7 8 7 8 8 6 8 6 6 7 9 3 3 5 10 19 29 26 28 31 30 30 36 31 30 31 37 41 37 43 40 39 33 36 39 41 43 49 50 46 51 55 52 53 49 45 43 41 36
6 14 19 16 14 11 12 9 10 10 9 9 6 10 14 7 5 6 5 14 25 30 34 34 29 32 28 28 32 32 28 19 28 37 37 36 39 42 45 45 46 49 52 55 47 49 53 49 53 49 49 47 45 42
7 12 15 18 10 10 8 13 9 8 6 6 5 7 4 5 4 1 8 10 19 31 39 40 38 33 31 32 28 35 37 35 33 33 35 32 36 43 47 45 46 52 51 50 44 47 48 52 52 50 53 56 60 58
15 9 12 15 12 11 6 7 6 2 4 2 2 5 6 7 4 1 6 9 15 23 33 44 36 30 19 29 35 34 35 31 39 39 36 31 39 46 51 46 34 50 51 47 41 42 53 57 49 34 36 41 44 43
13 14 12 12 18 7 6 4 7 10 9 11 8 8 7 12 9 4 15 18 10 17 27 36 44 38 35 34 37 41 42 39 45 38 39 44 50 55 55 50 43 51 53 51 40 56 50 47 35 42 45 44 41 43
14 20 8 4 4 2 1 18 29 26 27 26 30 31 20 9 7 4 6 20 29 27 29 30 40 41 41 41 42 39 36 35 39 30 32 39 43 48 49 42 50 50 53 45 50 55 49 47 46 46 51 52 56 51
12 18 7 5 9 32 39 38 37 31 30 29 26 25 13 5 8 7 14 22 26 30 28 31 34 37 38 39 41 38 39 38 37 30 37 31 38 50 40 38 43 43 50 44 51 41 47 45 49 45 45 43 44 45
15 28 16 7 11 21 26 8 10 11 6 8 9 7 4 4 5 7 29 25 29 30 26 29 34 36 33 32 32 31 32 30 34 38 38 46 53 38 40 37 34 36 42 42 40 39 41 37 44 41 36 35 40 39
35 36 25 12 12 3 4 5 7 4 3 5 4 5 2 5 6 11 22 29 27 23 27 29 28 31 29 30 31 32 33 28 32 34 37 45 43 31 39 41 33 31 38 35 38 39 39 37 39 40 36 38 40 43
Wind_Direction_850mb
305 321 330 337 341 344 344 344 346 344 337 333 324 322 320 321 322 323 317 270 291 286 284 290 302 315 321 318 302 325 333 13 326 332 303 282 278 271 287 274 254 177 129 305 260 105 255 350 342 66 190 86 96 94
295 306 320 325 328 332 334 337 340 339 332 326 325 323 319 315 313 310 307 314 283 277 267 281 288 278 265 261 281 286 296 312 314 359 356 342 316 298 293 284 251 253 229 199 202 209 196 65 252 271 108 96 94 118
296 304 312 319 324 327 328 327 336 336 328 317 318 320 318 311 306 295 295 293 281 295 299 272 283 311 279 276 257 250 267 273 283 300 321 300 270 5 357 353 319 349 27 334 6 293 174 165 226 178 135 108 129 125
298 305 311 321 325 325 325 324 332 337 331 321 316 320 320 316 309 298 290 277 274 279 273 292 302 286 265 265 250 269 250 261 269 277 278 282 294 293 265 273 314 283 319 333 280 25 346 191 194 148 158 156 95 214
297 306 316 323 327 327 325 327 328 334 322 318 318 319 317 316 310 305 292 284 265 251 288 293 301 304 303 264 259 261 264 257 250 248 243 252 277 289 308 249 260 35 12 357 292 338 311 273 210 142 149 165 175 168
296 309 317 325 329 328 327 328 329 328 316 315 316 314 313 315 306 324 325 347 298 258 293 300 294 302 282 273 261 267 248 257 270 273 250 251 265 283 263 284 359 1 9 28 352 334 326 2 359 150 135 134 135 127
299 309 319 327 330 329 328 324 324 325 312 310 310 306 304 308 311 264 258 237 320 334 280 296 281 295 320 275 272 265 264 254 243 258 260 250 267 291 278 282 299 317 350 37 26 14 8 16 335 310 131 141 120 120
300 311 320 326 326 326 326 322 320 322 313 309 312 305 297 303 304 308 277 258 275 284 246 262 270 290 345 324 307 276 243 242 243 242 246 268 276 230 250 265 72 20 38 36 52 32 25 17 325 352 81 89 87 86
303 312 320 324 323 325 321 320 316 313 309 317 314 309 305 320 294 281 292 288 264 233 254 234 255 295 330 321 292 280 242 239 230 237 228 245 247 226 206 233 187 93 80 63 77 47 33 31 344 333 325 71 81 85
306 314 322 322 324 323 320 317 307 300 308 323 322 321 279 287 312 299 313 221 225 228 227 261 223 254 285 277 286 285 271 213 232 213 223 217 241 255 256 265 184 147 151 111 102 94 5 301 299 318 340 25 53 54
307 318 321 324 324 323 324 321 283 291 351 6 284 255 301 313 315 291 270 224 202 244 223 248 236 232 233 223 250 272 310 268 221 210 189 216 212 222 241 252 214 166 149 158 155 178 225 279 277 289 295 319 338 347
314 318 322 324 326 329 330 312 219 186 312 294 305 298 297 278 239 264 225 258 305 310 292 237 261 228 225 205 225 253 261 273 249 359 184 242 218 196 211 231 230 196 177 178 187 199 196 260 352 307 314 319 307 290
316 320 324 326 331 336 351 6 223 231 278 305 284 267 227 184 7 271 346 44 273 247 240 269 303 271 196 189 213 223 239 250 337 247 182 244 217 198 209 214 201 199 219 225 211 210 359 352 264 285 281 274 273 278
319 322 325 324 332 326 344 72 201 267 255 258 257 320 231 213 248 236 235 249 246 236 267 276 282 256 209 180 192 159 242 231 259 263 91 40 61 99 166 154 130 94 109 113 11 62 168 257 270 289 286 284 257 264
322 323 327 327 314 277 216 182 197 223 291 274 294 258 251 298 303 304 280 274 288 275 255 279 276 244 262 255 207 306 182 97 329 18 357 359 33 60 71 82 79 61 44 43 39 26 5 334 305 285 285 275 262 263
321 325 334 341 219 192 180 185 178 202 267 262 249 265 285 327 296 313 313 315 343 336 286 215 295 299 277 318 92 335 11 360 316 16 14 27 29 38 49 58 53 28 11 5 357 337 321 311 334 310 308 278 292 281
322 330 329 331 191 183 182 195 236 229 240 249 259 324 338 337 348 345 9 356 0 2 347 315 275 290 312 4 18 38 2 293 309 322 14 20 4 12 24 26 22 359 347 332 324 319 306 316 318 321 318 336 292 286
324 324 321 200 175 150 144 216 280 274 257 279 327 342 344 335 334 341 345 349 348 335 330 334 316 329 20 351 16 3 338 329 334 308 300 338 307 360 7 350 343 346 335 327 317 306 309 334 332 319 331 332 291 303
327 330 281 160 153 120 314 237 278 291 287 331 333 340 340 347 353 351 342 346 342 321 309 335 327 35 6 355 344 332 332 336 332 336 344 18 27 17 21 14 2 349 334 324 318 312 312 314 312 304 309 323 341 326
4 37 143 147 139 55 339 315 302 286 317 329 338 339 337 12 28 25 21 19 10 27 17 23 11 322 313 309 309 307 312 319 326 338 344 347 351 350 355 354 348 336 334 355 359 357 1 354 357 359 358 358 346 340
75 128 139 143 63 15 1 349 323 320 318 319 343 348 345 9 15 21 24 36 41 33 351 316 316 315 311 300 297 291 305 319 335 357 357 347 347 357 352 345 347 0 4 1 351 339 344 346 341 337 339 333 339 344
125 147 139 172 71 338 269 307 287 298 294 308 332 349 351 18 31 23 18 11 2 347 346 341 350 19 44 49 56 61 62 68 65 58 50 47 45 41 38 34 36 35 32 17 360 350 336 328 324 314 314 313 322 334
147 143 172 206 226 253 238 358 263 263 290 331 288 303 303 352 40 19 66 17 9 10 12 16 28 41 46 51 54 54 50 51 55 60 59 54 49 41 40 35 34 33 30 29 26 22 11 354 336 324 319 310 314 317
163 173 186 237 208 274 238 225 231 257 233 226 250 273 217 201 158 94 89 256 357 4 5 20 31 29 35 41 36 30 25 27 23 19 4 354 1 13 18 13 18 17 13 11 10 14 15 16 15 16 6 357 349 343
219 206 185 228 216 225 231 197 205 221 241 195 215 213 201 177 173 75 56 43 335 343 351 351 343 346 344 3 12 23 24 25 25 20 24 26 14 25 17 11 8 2 359 356 356 3 3 356 358 5 10 8 11 7
236 202 192 202 189 211 196 197 206 227 229 208 238 154 174 196 93 63 31 329 346 344 345 347 340 342 350 352 345 353 4 358 11 17 16 16 15 14 10 6 359 352 358 357 352 349 347 348 353 343 338 344 348 348
251 209 210 225 247 241 243 216 225 252 226 224 176 164 190 86 82 132 314 349 336 339 337 335 328 320 319 335 15 14 13 18 16 23 20 17 18 16 12 1 354 352 353 353 348 351 348 341 336 337 336 332 333 333
241 265 212 191 215 245 256 199 210 236 274 261 135 49 44 45 78 104 351 14 11 335 334 345 356 335 3 14 12 16 13 8 359 1 2 2 2 358 358 349 352 359 351 347 351 352 349 347 340 6 13 15 11 359
234 226 189 211 224 229 247 51 29 58 86 78 72 73 89 91 102 74 348 348 0 347 355 3 358 9 12 10 9 12 9 8 1 4 6 359 354 353 351 348 360 353 352 347 355 0 359 5 359 16 11 6 355 20
220 183 206 218 171 335 212 118 96 75 73 87 105 108 103 88 75 75 38 345 339 11 18 3 358 5 7 3 358 0 2 2 4 11 8 358 351 342 338 351 357 350 350 349 359 357 359 1 8 5 7 12 6 5
272 167 199 320 95 69 80 87 95 94 95 94 92 95 94 75 84 27 351 2 3 8 14 7 360 360 1 357 358 360 356 356 355 352 350 351 345 346 350 360 351 351 349 359 354 351 1 0 5 11 13 12 12 12
217 197 203 105 81 111 110 145 62 77 68 75 54 45 78 164 103 45 24 25 15 10 12 7 358 356 352 350 349 348 346 348 343 339 353 359 353 355 357 356 350 355 354 356 356 359 354 356 2 2 1 15 14 17
92 73 82 101 125 211 314 100 57 64 3 53 16 292 256 122 97 54 15 16 6 358 4 1 352 349 350 350 351 348 346 347 344 340 354 352 350 353 353 352 355 360 358 357 359 0 0 1 357 357 354 351 353 354